| time (UTC) | temp F | wind direction | speed MPH | gust MPH | rain 1hr in | rain 24hr in | rain mn in | humidity % | barometer mb |
| 20260504190113 | 68 | 112 | 0.0 | 2.0 | 0.00 | 0.00 | 0.00 | 30 | 1012.2 |
| 20260504185114 | 68 | 90 | 0.0 | 0.0 | 0.00 | 0.00 | 0.00 | 29 | 1012.2 |
| 20260504184112 | 69 | 202 | 0.0 | 0.0 | 0.00 | 0.00 | 0.00 | 28 | 1012.2 |
| 20260504183112 | 70 | 45 | 0.0 | 0.0 | 0.00 | 0.00 | 0.00 | 27 | 1012.2 |
| 20260504182112 | 71 | 90 | 0.0 | 1.0 | 0.00 | 0.00 | 0.00 | 26 | 1012.1 |
| 20260504181112 | 72 | 270 | 0.0 | 0.0 | 0.00 | 0.00 | 0.00 | 25 | 1012.1 |
| 20260504175112 | 73 | 360 | 0.0 | 0.0 | 0.00 | 0.00 | 0.00 | 25 | 1011.9 |
| 20260504173112 | 74 | 337 | 1.0 | 2.0 | 0.00 | 0.00 | 0.00 | 25 | 1011.9 |
| 20260504172112 | 74 | 225 | 1.0 | 1.0 | 0.00 | 0.00 | 0.00 | 25 | 1011.8 |
| 20260504171111 | 74 | 225 | 2.0 | 2.0 | 0.00 | 0.00 | 0.00 | 25 | 1011.8 |
| 20260504170112 | 75 | 180 | 1.0 | 1.0 | 0.00 | 0.00 | 0.00 | 25 | 1011.8 |
| 20260504160111 | 77 | 202 | 3.0 | 1.0 | 0.00 | 0.00 | 0.00 | 25 | 1011.6 |
| 20260504150111 | 80 | 157 | 4.0 | 4.0 | 0.00 | 0.00 | 0.00 | 25 | 1011.5 |
| 20260504141111 | 80 | 45 | 4.0 | 5.0 | 0.00 | 0.00 | 0.00 | 25 | 1011.8 |
| 20260504140111 | 80 | 67 | 3.0 | 4.0 | 0.00 | 0.00 | 0.00 | 25 | 1011.9 |
| 20260504130111 | 80 | 112 | 3.0 | 7.0 | 0.00 | 0.00 | 0.00 | 25 | 1012.3 |
| 20260504120115 | 78 | 202 | 3.0 | 6.0 | 0.00 | 0.00 | 0.00 | 30 | 1013.0 |
| 20260504110114 | 76 | 315 | 2.0 | 2.0 | 0.00 | 0.00 | 0.00 | 34 | 1013.8 |
| 20260504100113 | 71 | 315 | 1.0 | 3.0 | 0.00 | 0.00 | 0.00 | 36 | 1014.6 |
| 20260504081112 | 63 | 157 | 1.0 | 0.0 | 0.00 | 0.00 | 0.00 | 44 | 1015.7 |
| 20260504080112 | 62 | 135 | 1.0 | 2.0 | 0.00 | 0.00 | 0.00 | 44 | 1015.8 |
| 20260504060111 | 50 | 202 | 0.0 | 0.0 | 0.00 | 0.00 | 0.00 | 51 | 1016.2 |
| 20260504050111 | 47 | 67 | 1.0 | 1.0 | 0.00 | 0.00 | 0.00 | 50 | 1015.8 |
| 20260504045111 | 47 | 135 | 1.0 | 2.0 | 0.00 | 0.00 | 0.00 | 50 | 1015.8 |
| 20260504043111 | 47 | 90 | 0.0 | 0.0 | 0.00 | 0.00 | 0.00 | 50 | 1016.1 |
| 20260504042111 | 47 | 67 | 0.0 | 0.0 | 0.00 | 0.00 | 0.00 | 50 | 1015.9 |
| 20260504041110 | 47 | 180 | 0.0 | 0.0 | 0.00 | 0.00 | 0.00 | 49 | 1015.9 |
| 20260504040110 | 47 | 112 | 0.0 | 0.0 | 0.00 | 0.00 | 0.00 | 50 | 1016.1 |
| 20260504035111 | 47 | 90 | 0.0 | 0.0 | 0.00 | 0.00 | 0.00 | 50 | 1016.1 |
| 20260504034113 | 47 | 202 | 0.0 | 0.0 | 0.00 | 0.00 | 0.00 | 49 | 1016.0 |
| 20260504033113 | 48 | 112 | 0.0 | 0.0 | 0.00 | 0.00 | 0.00 | 49 | 1016.0 |
| 20260504031112 | 48 | 180 | 0.0 | 0.0 | 0.00 | 0.00 | 0.00 | 48 | 1016.0 |
| 20260504030112 | 49 | 157 | 0.0 | 0.0 | 0.00 | 0.00 | 0.00 | 48 | 1015.9 |
| 20260504024112 | 49 | 135 | 0.0 | 0.0 | 0.00 | 0.00 | 0.00 | 48 | 1015.9 |
| 20260504022112 | 49 | 112 | 0.0 | 0.0 | 0.00 | 0.00 | 0.00 | 47 | 1015.9 |
| 20260504021112 | 50 | 180 | 0.0 | 0.0 | 0.00 | 0.00 | 0.00 | 47 | 1015.9 |
| 20260504020112 | 50 | 135 | 0.0 | 0.0 | 0.00 | 0.00 | 0.00 | 47 | 1015.9 |
| 20260504015112 | 51 | 135 | 0.0 | 0.0 | 0.00 | 0.00 | 0.00 | 46 | 1015.9 |
| 20260504014112 | 51 | 157 | 0.0 | 0.0 | 0.00 | 0.00 | 0.00 | 46 | 1015.6 |
| 20260504013112 | 51 | 135 | 0.0 | 0.0 | 0.00 | 0.00 | 0.00 | 45 | 1015.6 |
| 20260504012111 | 51 | 315 | 0.0 | 0.0 | 0.00 | 0.00 | 0.00 | 44 | 1015.6 |
| 20260504011111 | 52 | 157 | 0.0 | 0.0 | 0.00 | 0.00 | 0.00 | 44 | 1015.6 |
| 20260504010113 | 52 | 202 | 0.0 | 0.0 | 0.00 | 0.00 | 0.00 | 44 | 1015.6 |
| 20260504005111 | 52 | 202 | 0.0 | 0.0 | 0.00 | 0.00 | 0.00 | 44 | 1015.6 |
| 20260504004111 | 52 | 202 | 0.0 | 0.0 | 0.00 | 0.00 | 0.00 | 44 | 1015.6 |
| 20260504003111 | 53 | 67 | 0.0 | 0.0 | 0.00 | 0.00 | 0.00 | 43 | 1015.6 |
| 20260504002111 | 53 | 45 | 0.0 | 0.0 | 0.00 | 0.00 | 0.00 | 43 | 1015.6 |
| 20260504001111 | 53 | 202 | 0.0 | 0.0 | 0.00 | 0.00 | 0.00 | 43 | 1015.6 |
| 20260504000111 | 53 | 202 | 0.0 | 0.0 | 0.00 | 0.00 | 0.00 | 42 | 1015.2 |
| 20260503235111 | 53 | 157 | 1.0 | 0.0 | 0.00 | 0.00 | 0.00 | 42 | 1015.2 |
| 20260503234111 | 53 | 45 | 0.0 | 0.0 | 0.00 | 0.00 | 0.00 | 43 | 1015.1 |
| 20260503233111 | 54 | 90 | 0.0 | 1.0 | 0.00 | 0.00 | 0.00 | 42 | 1015.1 |
| 20260503232111 | 54 | 202 | 0.0 | 0.0 | 0.00 | 0.00 | 0.00 | 42 | 1014.6 |
| 20260503231110 | 55 | 90 | 0.0 | 1.0 | 0.00 | 0.00 | 0.00 | 41 | 1014.6 |
| 20260503230110 | 55 | 202 | 0.0 | 0.0 | 0.00 | 0.00 | 0.00 | 40 | 1015.0 |
| 20260503224112 | 56 | 67 | 0.0 | 0.0 | 0.00 | 0.00 | 0.00 | 40 | 1014.8 |
| 20260503223110 | 56 | 202 | 0.0 | 0.0 | 0.00 | 0.00 | 0.00 | 39 | 1014.8 |
| 20260503222110 | 56 | 67 | 0.0 | 0.0 | 0.00 | 0.00 | 0.00 | 39 | 1014.5 |
| 20260503221110 | 56 | 135 | 1.0 | 1.0 | 0.00 | 0.00 | 0.00 | 38 | 1014.5 |
| 20260503220109 | 57 | 135 | 0.0 | 0.0 | 0.00 | 0.00 | 0.00 | 37 | 1014.6 |
| 20260503215115 | 57 | 157 | 0.0 | 0.0 | 0.00 | 0.00 | 0.00 | 37 | 1014.6 |
| 20260503214114 | 58 | 157 | 0.0 | 0.0 | 0.00 | 0.00 | 0.00 | 36 | 1014.2 |
| 20260503213115 | 58 | 112 | 0.0 | 1.0 | 0.00 | 0.00 | 0.00 | 36 | 1014.2 |
| 20260503210115 | 60 | 112 | 0.0 | 0.0 | 0.00 | 0.00 | 0.00 | 34 | 1013.9 |
| 20260503205114 | 61 | 90 | 0.0 | 0.0 | 0.00 | 0.00 | 0.00 | 33 | 1013.9 |
| 20260503203114 | 61 | 225 | 0.0 | 2.0 | 0.00 | 0.00 | 0.00 | 32 | 1013.9 |
| 20260503201114 | 62 | 90 | 1.0 | 3.0 | 0.00 | 0.00 | 0.00 | 31 | 1013.9 |
| 20260503200114 | 62 | 45 | 0.0 | 2.0 | 0.00 | 0.00 | 0.00 | 30 | 1013.3 |
| 20260503194113 | 63 | 225 | 0.0 | 0.0 | 0.00 | 0.00 | 0.00 | 29 | 1013.5 |
| 20260503193113 | 64 | 67 | 0.0 | 1.0 | 0.00 | 0.00 | 0.00 | 30 | 1013.5 |
| 20260503191113 | 66 | 67 | 0.0 | 0.0 | 0.00 | 0.00 | 0.00 | 28 | 1013.2 |